Weather History for KDYT - May, 2013

Change the Weather History Date:

Friday, May 10, 2013

  Actual Average Record
Temperature  
Mean Temperature 37 °F -  
Max Temperature 39 °F 53 °F 86 °F (2007)
Min Temperature 35 °F 37 °F 19 °F (1966)
Degree Days  
Heating Degree Days 28    
Moisture  
Dew Point 31 °F    
Average Humidity 79    
Maximum Humidity 87    
Minimum Humidity 70    
Precipitation  
Precipitation 0.00 in - - ()
Sea Level Pressure  
Sea Level Pressure 30.10 in    
Wind  
Wind Speed 14 mph (NE)    
Max Wind Speed 21 mph    
Max Gust Speed 23 mph    
Visibility 10 miles    
Events Rain    
Averages and records for this station are not official NWS values.
T = Trace of Precipitation, MM = Missing Value Source: NWS Daily Summary

Daily Weather History Graph

Daily Weather History Graph

Search for Another Location

Airport or City:

Trip Planner

Search our weather history database for the weather conditions in past years. The results will help you decide how hot, cold, wet, or windy it might be!

Date:

Astronomy

May. 10, 2013 Rise Set
Actual Time 5:39 AM CDT 8:30 PM CDT
Civil Twilight 5:04 AM CDT 9:05 PM CDT
Nautical Twilight 4:20 AM CDT 9:50 PM CDT
Astronomical Twilight 3:27 AM CDT 10:43 PM CDT
Moon 6:03 AM CDT (5/10) 9:21 PM CDT (5/10)
Length of Visible Light 16h 00m
Length of Day
14h 50m
New Moon, 0% of the Moon is Illuminated
May 10
New Moon
May 17
First Quarter
May 24
Full
May 31
Last Quarter
Jun 8
New

Hourly Weather History & Observations

Time (CDT) Temp. Windchill Dew Point Humidity Pressure Visibility Wind Dir Wind Speed Gust Speed Precip Events Conditions
12:53 AM 37.4 °F 29.3 °F 32.0 °F 81% 30.23 in 10.0 mi NNE 12.7 mph - N/A   Clear
1:14 AM 37.4 °F 29.3 °F 32.0 °F 81% 30.22 in 10.0 mi NNE 12.7 mph - N/A   Clear
1:33 AM 37.4 °F 29.3 °F 32.0 °F 81% 30.22 in 10.0 mi NNE 12.7 mph - N/A   Clear
1:53 AM 37.4 °F 29.8 °F 32.0 °F 81% 30.22 in 10.0 mi NNE 11.5 mph - N/A   Clear
2:14 AM 37.4 °F 29.8 °F 32.0 °F 81% 30.21 in 10.0 mi NNE 11.5 mph - N/A   Clear
2:33 AM 37.4 °F 29.8 °F 30.2 °F 75% 30.21 in 10.0 mi NNE 11.5 mph - N/A   Clear
2:53 AM 37.4 °F 29.8 °F 30.2 °F 75% 30.20 in 10.0 mi NE 11.5 mph - N/A   Clear
3:14 AM 37.4 °F 29.3 °F 32.0 °F 81% 30.20 in 10.0 mi NE 12.7 mph - N/A   Clear
3:53 AM 37.4 °F 28.9 °F 30.2 °F 75% 30.20 in 10.0 mi NE 13.8 mph - N/A   Clear
4:13 AM 37.4 °F 28.5 °F 32.0 °F 81% 30.20 in 10.0 mi NE 15.0 mph - N/A   Clear
4:33 AM 37.4 °F 27.8 °F 32.0 °F 81% 30.19 in 10.0 mi NE 17.3 mph - N/A   Clear
4:54 AM 37.4 °F 28.2 °F 32.0 °F 81% 30.20 in 10.0 mi NE 16.1 mph - N/A   Clear
5:13 AM 37.4 °F 27.8 °F 30.2 °F 75% 30.19 in 10.0 mi NE 17.3 mph - N/A   Clear
5:33 AM 37.4 °F 27.5 °F 30.2 °F 75% 30.19 in 10.0 mi NE 18.4 mph - N/A   Clear
5:54 AM 37.4 °F 27.8 °F 32.0 °F 81% 30.19 in 10.0 mi NE 17.3 mph - N/A   Clear
6:13 AM 37.4 °F 27.8 °F 32.0 °F 81% 30.20 in 10.0 mi NE 17.3 mph - N/A   Clear
6:34 AM 37.4 °F 27.8 °F 32.0 °F 81% 30.20 in 10.0 mi NE 17.3 mph - N/A   Clear
7:13 AM 37.4 °F 27.8 °F 32.0 °F 81% 30.19 in 10.0 mi NE 17.3 mph - N/A   Clear
7:34 AM 37.4 °F 28.2 °F 32.0 °F 81% 30.20 in 10.0 mi NE 16.1 mph - N/A   Clear
8:13 AM 37.4 °F 28.2 °F 32.0 °F 81% 30.20 in 10.0 mi NE 16.1 mph - N/A   Clear
8:33 AM 37.4 °F 28.2 °F 32.0 °F 81% 30.20 in 10.0 mi NE 16.1 mph - N/A   Clear
8:54 AM 37.4 °F 27.8 °F 32.0 °F 81% 30.19 in 10.0 mi NE 17.3 mph - N/A   Clear
9:13 AM 37.4 °F 27.8 °F 32.0 °F 81% 30.20 in 10.0 mi NE 17.3 mph - N/A   Clear
9:34 AM 37.4 °F 26.9 °F 32.0 °F 81% 30.19 in 10.0 mi NE 20.7 mph - N/A   Clear
9:53 AM 37.4 °F 27.8 °F 30.2 °F 75% 30.19 in 10.0 mi NE 17.3 mph - N/A   Clear
10:13 AM 39.2 °F 29.8 °F 30.2 °F 70% 30.18 in 10.0 mi ENE 18.4 mph - N/A   Clear
10:34 AM 37.4 °F 27.8 °F 30.2 °F 75% 30.18 in 10.0 mi NE 17.3 mph 20.7 mph N/A   Clear
10:53 AM 37.4 °F 28.2 °F 30.2 °F 75% 30.18 in 10.0 mi NE 16.1 mph - N/A   Clear
11:13 AM 37.4 °F 27.8 °F 30.2 °F 75% 30.18 in 10.0 mi NE 17.3 mph 23.0 mph N/A   Clear
11:33 AM 39.2 °F 30.8 °F 30.2 °F 70% 30.18 in 10.0 mi NE 15.0 mph - N/A   Clear
12:13 PM 39.2 °F 29.8 °F 30.2 °F 70% 30.16 in 10.0 mi ENE 18.4 mph - N/A   Clear
12:33 PM 39.2 °F 29.6 °F 30.2 °F 70% 30.15 in 10.0 mi ENE 19.6 mph - N/A   Clear
12:53 PM 39.2 °F 29.8 °F 30.2 °F 70% 30.14 in 10.0 mi ENE 18.4 mph - N/A   Clear
1:14 PM 39.2 °F 30.5 °F 30.2 °F 70% 30.14 in 10.0 mi ENE 16.1 mph - N/A   Clear
1:34 PM 39.2 °F 30.8 °F 32.0 °F 75% 30.13 in 10.0 mi ENE 15.0 mph - N/A   Clear
1:53 PM 39.2 °F 30.8 °F 32.0 °F 75% 30.11 in 10.0 mi ENE 15.0 mph - N/A   Clear
2:14 PM 39.2 °F 31.2 °F 32.0 °F 75% 30.11 in 10.0 mi ENE 13.8 mph - N/A   Clear
2:34 PM 39.2 °F 31.6 °F 32.0 °F 75% 30.10 in 10.0 mi ENE 12.7 mph - N/A   Clear
2:53 PM 39.2 °F 31.6 °F 30.2 °F 70% 30.09 in 10.0 mi ENE 12.7 mph - N/A   Clear
3:14 PM 39.2 °F 32.0 °F 32.0 °F 75% 30.08 in 10.0 mi ENE 11.5 mph - N/A   Clear
3:33 PM 39.2 °F 32.0 °F 30.2 °F 70% 30.07 in 10.0 mi ENE 11.5 mph - N/A   Clear
3:53 PM 39.2 °F 31.6 °F 32.0 °F 75% 30.06 in 10.0 mi ENE 12.7 mph - N/A   Clear
4:14 PM 39.2 °F 31.6 °F 32.0 °F 75% 30.05 in 10.0 mi ENE 12.7 mph - N/A   Clear
4:33 PM 39.2 °F 32.5 °F 32.0 °F 75% 30.04 in 10.0 mi ENE 10.4 mph - N/A   Clear
4:53 PM 37.4 °F 30.3 °F 30.2 °F 75% 30.03 in 10.0 mi ENE 10.4 mph - N/A   Clear
5:14 PM 37.4 °F 31.4 °F 30.2 °F 75% 30.03 in 10.0 mi NE 8.1 mph - N/A   Clear
5:33 PM 37.4 °F 30.8 °F 32.0 °F 81% 30.02 in 10.0 mi NE 9.2 mph - N/A   Clear
5:53 PM 37.4 °F 30.3 °F 32.0 °F 81% 30.02 in 10.0 mi NE 10.4 mph - N/A   Clear
6:14 PM 37.4 °F 29.3 °F 32.0 °F 81% 30.00 in 10.0 mi ENE 12.7 mph - N/A   Clear
6:33 PM 35.6 °F 27.5 °F 32.0 °F 87% 30.00 in 10.0 mi ENE 11.5 mph - N/A   Clear
6:54 PM 35.6 °F 27.5 °F 30.2 °F 81% 30.00 in 10.0 mi ENE 11.5 mph - N/A   Clear
7:13 PM 35.6 °F 28.0 °F 32.0 °F 87% 29.98 in 10.0 mi ENE 10.4 mph - N/A   Clear
7:33 PM 35.6 °F 28.0 °F 32.0 °F 87% 29.95 in 10.0 mi East 10.4 mph - N/A   Scattered Clouds
7:54 PM 35.6 °F 28.6 °F 32.0 °F 87% 29.96 in 10.0 mi NE 9.2 mph - N/A   Mostly Cloudy
8:13 PM 35.6 °F 27.5 °F 32.0 °F 87% 29.94 in 10.0 mi NE 11.5 mph - N/A   Mostly Cloudy
8:34 PM 35.6 °F 27.1 °F 32.0 °F 87% 29.95 in 10.0 mi NNE 12.7 mph - N/A   Scattered Clouds
8:53 PM 35.6 °F 29.2 °F 32.0 °F 87% 29.95 in 10.0 mi NNE 8.1 mph - N/A   Drizzle
9:13 PM 35.6 °F 29.2 °F 32.0 °F 87% 29.94 in 10.0 mi NNE 8.1 mph - N/A Rain Light Rain
9:33 PM 35.6 °F 30.7 °F 32.0 °F 87% 29.94 in 10.0 mi NNE 5.8 mph - N/A   Overcast
9:53 PM 35.6 °F 29.2 °F 30.2 °F 81% 29.93 in 10.0 mi NE 8.1 mph - N/A   Mostly Cloudy
10:13 PM 35.6 °F 30.7 °F 30.2 °F 81% 29.92 in 10.0 mi NE 5.8 mph - N/A   Overcast
10:33 PM 35.6 °F 29.9 °F 32.0 °F 87% 29.91 in 10.0 mi NE 6.9 mph - N/A   Overcast
10:54 PM 35.6 °F 29.9 °F 30.2 °F 81% 29.92 in 10.0 mi NE 6.9 mph - N/A   Overcast
11:13 PM 35.6 °F 28.6 °F 30.2 °F 81% 29.91 in 10.0 mi ENE 9.2 mph - N/A   Mostly Cloudy
11:33 PM 35.6 °F 29.2 °F 30.2 °F 81% 29.91 in 10.0 mi NE 8.1 mph - N/A   Overcast
11:53 PM 37.4 °F 31.4 °F 30.2 °F 75% 29.94 in 10.0 mi NNW 8.1 mph - N/A   Scattered Clouds